Printer-friendly version
Follow the MPC on Twitter Follow the MPC on Facebook The MPC blog
Minor Planet Center

MPEC 2002-F09 : 2002 EV11

The following Minor Planet Electronic Circular may be linked-to from your own Web pages, but must not otherwise be redistributed electronically.

A form allowing access to any MPEC is at the bottom of this page.


Read MPEC 2002-F08 Read MPEC 2002-F10


M.P.E.C. 2002-F09                                Issued 2002 Mar. 18, 16:12 UT

     The Minor Planet Electronic Circulars contain information on unusual
         minor planets and routine data on comets.  They are published
   on behalf of Commission 20 of the International Astronomical Union by the
          Minor Planet Center, Smithsonian Astrophysical Observatory,
                          Cambridge, MA 02138, U.S.A.

             Prepared using the Tamkin Foundation Computer Network

                              MPC@CFA.HARVARD.EDU
          URL http://cfa-www.harvard.edu/iau/mpc.html  ISSN 1523-6714

                                   2002 EV11

Observations:
     K02E11V* C2002 03 13.41724 13 22 22.82 -13 01 20.5          19.2        704
     K02E11V  C2002 03 13.43173 13 22 15.82 -13 00 20.6          19.3        704
     K02E11V  C2002 03 13.44619 13 22 08.85 -12 59 19.9          19.4        704
     K02E11V  C2002 03 13.46061 13 22 02.09 -12 58 20.5          19.4        704
     K02E11V  C2002 03 13.47496 13 21 55.14 -12 57 20.3          19.4        704
     K02E11V  C2002 03 14.04407 13 17 31.70 -12 18 17.3                      557
     K02E11V  C2002 03 14.04477 13 17 31.39 -12 18 16.7                      557
     K02E11V  C2002 03 14.04546 13 17 31.15 -12 18 13.1                      557
     K02E11V  C2002 03 14.04617 13 17 30.58 -12 18 11.1                      557
     K02E11V  C2002 03 14.04686 13 17 30.25 -12 18 08.2                      557
     K02E11V  C2002 03 14.09038 13 17 10.39 -12 15 08.9                      246
     K02E11V  C2002 03 14.09144 13 17 09.82 -12 15 06.5                      246
     K02E11V  C2002 03 14.09244 13 17 09.30 -12 15 00.7                      246
     K02E11V  C2002 03 14.09337 13 17 08.82 -12 14 56.2                      246
     K02E11V  C2002 03 14.09436 13 17 08.49 -12 14 55.7                      246
     K02E11V  C2002 03 15.38371 13 07 40.28 -10 49 08.5          18.8        704
     K02E11V  C2002 03 15.40106 13 07 32.68 -10 48 01.6          19.6        704
     K02E11V  C2002 03 15.41537 13 07 26.52 -10 47 05.1          19.0        704
     K02E11V  C2002 03 15.44551 13 07 13.52 -10 45 07.5          18.7        704
     K02E11V  C2002 03 16.38458 13 00 45.53 -09 45 27.8          19.4        704
     K02E11V  C2002 03 16.39852 13 00 39.79 -09 44 34.9          19.2        704
     K02E11V  C2002 03 16.41247 13 00 34.09 -09 43 42.9          18.9        704
     K02E11V  C2002 03 16.42646 13 00 28.29 -09 42 51.3          19.5        704
     K02E11V  C2002 03 17.51380 12 53 25.67 -08 36 20.5          19.7        422
     K02E11V  C2002 03 17.51471 12 53 25.29 -08 36 16.2          19.5        422
     K02E11V WC2002 03 17.97251 12 50 33.72 -08 09 51.1                      557
     K02E11V WC2002 03 17.97322 12 50 33.37 -08 09 49.5                      557
     K02E11V WC2002 03 17.97461 12 50 32.82 -08 09 43.9          20   V      557
     K02E11V  C2002 03 18.32281 12 48 25.97 -07 49 35.8          20.2 R      651
     K02E11V  C2002 03 18.32539 12 48 24.93 -07 49 26.4          20.1 R      651
     K02E11V  C2002 03 18.32718 12 48 24.24 -07 49 20.8          20.3 R      651

Observer details:
246 Klet Observatory-KLENOT.  Observers M. Tichy, M. Kocer.  1.06-m KLENOT
    telescope + CCD.
422 Loomberah.  Observer G. J. Garradd.  0.45-m f/5.4 reflector + CCD.
557 Ondrejov.  Observers L. Sarounova, P. Kusnirak.  0.65-m f/3.6 reflector
    + CCD.
651 Grasslands Observatory, Tucson.  Observer J. E. McGaha.  0.62-m f/5.1
    reflector + CCD.
704 Lincoln Laboratory ETS, New Mexico.  Observers M. Blythe, F. Shelly,
    M. Bezpalko, R. Huber, L. Manguso, S. Adams, J. Piscitelli.  Measurers
    J. Stuart, R. Sayer, J. B. Evans, H. Viggh.  1.0-m f/2.15 reflector + CCD.

Orbital elements:
2002 EV11
Epoch 2002 Mar. 7.0 TT = JDT 2452340.5                  MPC
M  13.70086              (2000.0)            P               Q
n   0.27751415     Peri.  215.39041     +0.75999972     -0.64958521
a   2.3278016      Node   185.26907     +0.63641471     +0.75035812
e   0.9107187      Incl.   13.19591     +0.13182089     +0.12248164
P   3.55           H   20.5           G   0.15
From 31 observations 2002 Mar. 13-18.

Ephemeris:
2002 EV11                a,e,i = 2.33, 0.91, 13                  q = 0.2078
Date    TT    R. A. (2000) Decl.     Delta      r     Elong.  Phase     V
2002 03 07    14 21.42   -20 53.3    0.311    1.201   126.0    41.9    20.0
2002 03 17    12 56.70   -09 07.4    0.386    1.364   159.4    14.9    19.9
2002 03 27    12 07.49   -01 10.7    0.517    1.514   176.0     2.6    20.3
2002 04 06    11 40.62   +03 17.0    0.684    1.656   158.2    13.0    21.5
2002 04 16    11 26.68   +05 39.4    0.875    1.789   144.3    19.1    22.4

Timothy B. Spahr             (C) Copyright 2002 MPC           M.P.E.C. 2002-F09

Read MPEC 2002-F08 Read MPEC 2002-F10


MPEC number:

Enter an MPEC number in one of the following forms:

  • 1997-B01 (the full form)
  • J97B01 (the packed version of the full form)
  • B01 (the abbreviated form)

Valid HTML 4.01!